HELX - Luxor Intl. Airport

HELX 271000Z 21003KT CAVOK 22/03 Q1014 NOSIG


Sceneries:

Scenery Link
HELX/LXR - FREEWARE - AIG LUXOR 2011
HELX/LXR - FREEWARE - Luxor Airport for X-Plane11

Briefing & Aerodrome Charts:

To be uploaded soon! Stay tuned!


Our Partners

VATSIM

VATSIM is the Virtual Air Traffic Simulation network, connecting people from around the world flying online or acting as virtual Air Traffic Controllers.

VATME

VATME - VATSIM Middle East Divison is part of the Africa and Middle East Region on the VATSIM Network.

Egyptair Virtual

Egyptair Virtual simulates the real life operations of Egyptair yet is not releated to the actual Egyptair.